Location: Middle Street
(51.7167°N, 0.0333°E)
Time: 00:53:48
(UTC+00:00)

Cosmos 2279 Rocket - Pass Details

Date: 20 January 2021
Orbit: 964 x 979 km, 82.9° (Epoch: 28 February)

Event Time Altitude Azimuth Distance (km) Brightness Sun altitude
Rises 17:53:14 0° 349° (NNW) 3,696 7.0 -12.9°
Reaches altitude 10° 17:55:46 10° 348° (NNW) 2,744 6.3 -13.2°
Maximum altitude 18:02:03 79° 263° (W) 1,003 4.2 -14.2°
Drops below altitude 10° 18:08:17 10° 178° (S) 2,719 6.5 -15.1°
Sets 18:10:46 0° 177° (S) 3,661 7.1 -15.5°
